Location: Buena Vista
(37.7110°N, 119.7938°W)
Time: 16:25:02
(UTC+00:00)

CAS-4B - Visible Passes

Search period start: 03 October 2024 00:00
Search period end: 13 October 2024 00:00
Orbit: 453 x 470 km, 43.0° (Epoch: 03 October)

Date Brightness Start Highest point End Pass type
(mag) Time Alt. Az. Time Alt. Az. Time Alt. Az.
03 Oct ? 12:02:03 37° NNE 12:02:03 37° NNE 12:05:20 10° ENE visible
04 Oct ? 11:29:17 20° ENE 11:29:17 20° ENE 11:30:42 10° ENE visible
04 Oct ? 13:03:06 16° WNW 13:05:59 90° NE 13:09:40 10° ESE visible
05 Oct ? 12:30:20 46° WNW 12:31:19 81° NNE 12:34:59 10° ESE visible
06 Oct ? 11:57:35 44° E 11:57:35 44° E 12:00:12 10° ESE visible
06 Oct ? 13:31:48 10° W 13:34:46 23° SW 13:37:43 10° SSE visible
07 Oct ? 11:24:50 13° ESE 11:24:50 13° ESE 11:25:19 10° ESE visible
07 Oct ? 12:58:39 21° WSW 12:59:57 27° SW 13:03:04 10° SSE visible
08 Oct ? 12:25:56 27° S 12:25:56 27° S 12:28:18 10° SSE visible
09 Oct ? 11:53:14 11° SE 11:53:14 11° SE 11:53:25 10° SE visible
